QPF
0.00 0.00 0.00 0.00 0.00 0.00 0.00 0.00 0.00 0.00 0.00 0.00 0.00 0.00 0.00 0.00 0.00 0.00 0.01 0.01 0.00 0.01 0.01 0.00 0.01 0.00 0.00 0.01 0.04 0.11 0.11 0.12 0.10 0.06 0.06 0.03 0.00 0.00 0.00 0.00 0.00 0.00 0.00
0.00 0.00 0.00 0.00 0.00 0.00 0.00 0.00 0.00 0.00 0.00 0.00 0.00 0.00 0.00 0.00 0.00 0.00 0.00 0.01 0.01 0.00 0.01 0.01 0.00 0.00 0.01 0.01 0.03 0.11 0.15 0.08 0.13 0.04 0.02 0.03 0.04 0.01 0.00 0.00 0.00 0.00 0.00
0.00 0.00 0.00 0.00 0.00 0.00 0.00 0.00 0.00 0.00 0.00 0.00 0.00 0.00 0.00 0.00 0.00 0.00 0.00 0.00 0.00 0.01 0.01 0.01 0.01 0.01 0.01 0.01 0.02 0.04 0.10 0.08 0.07 0.07 0.00 0.00 0.01 0.01 0.01 0.00 0.00 0.00 0.00
0.00 0.00 0.00 0.00 0.00 0.00 0.00 0.00 0.00 0.00 0.00 0.00 0.00 0.00 0.00 0.00 0.00 0.00 0.00 0.00 0.00 0.00 0.00 0.01 0.01 0.01 0.01 0.02 0.02 0.04 0.08 0.06 0.06 0.05 0.02 0.00 0.00 0.00 0.01 0.00 0.00 0.00 0.00
0.00 0.00 0.00 0.00 0.00 0.00 0.00 0.00 0.00 0.00 0.00 0.00 0.00 0.00 0.00 0.00 0.00 0.00 0.00 0.00 0.00 0.00 0.00 0.01 0.01 0.00 0.00 0.02 0.02 0.05 0.15 0.10 0.03 0.01 0.01 0.00 0.00 0.00 0.00 0.00 0.00 0.00 0.00
0.00 0.00 0.00 0.00 0.00 0.00 0.00 0.00 0.00 0.00 0.00 0.00 0.00 0.00 0.00 0.00 0.01 0.01 0.00 0.00 0.00 0.00 0.00 0.01 0.01 0.00 0.00 0.02 0.06 0.11 0.14 0.16 0.09 0.02 0.01 0.00 0.01 0.00 0.00 0.00 0.00 0.00 0.00
0.00 0.00 0.00 0.00 0.00 0.00 0.00 0.00 0.00 0.00 0.00 0.00 0.00 0.01 0.01 0.01 0.03 0.02 0.01 0.00 0.00 0.00 0.00 0.01 0.01 0.00 0.00 0.01 0.04 0.15 0.24 0.15 0.12 0.05 0.02 0.00 0.00 0.00 0.00 0.00 0.00 0.00 0.00
0.00 0.00 0.00 0.00 0.00 0.00 0.00 0.00 0.00 0.00 0.00 0.00 0.00 0.00 0.01 0.01 0.01 0.03 0.00 0.00 0.00 0.00 0.00 0.00 0.00 0.00 0.00 0.01 0.03 0.07 0.18 0.19 0.11 0.07 0.04 0.02 0.00 0.02 0.01 0.00 0.00 0.00 0.01
0.00 0.00 0.00 0.00 0.00 0.00 0.00 0.00 0.00 0.00 0.00 0.00 0.00 0.00 0.00 0.01 0.02 0.01 0.00 0.00 0.00 0.00 0.00 0.00 0.00 0.00 0.00 0.01 0.05 0.11 0.20 0.22 0.19 0.10 0.06 0.04 0.02 0.00 0.00 0.00 0.00 0.00 0.00
0.00 0.00 0.00 0.00 0.00 0.00 0.00 0.00 0.00 0.00 0.00 0.00 0.00 0.00 0.00 0.01 0.02 0.01 0.01 0.01 0.01 0.00 0.00 0.00 0.00 0.00 0.00 0.00 0.05 0.16 0.28 0.27 0.23 0.18 0.13 0.08 0.04 0.00 0.00 0.00 0.00 0.00 0.00
0.00 0.00 0.00 0.00 0.00 0.00 0.00 0.00 0.00 0.00 0.00 0.00 0.00 0.01 0.00 0.00 0.01 0.02 0.01 0.01 0.01 0.01 0.00 0.00 0.00 0.00 0.00 0.00 0.01 0.07 0.23 0.29 0.24 0.28 0.23 0.11 0.05 0.03 0.00 0.00 0.01 0.02 0.00
0.00 0.00 0.00 0.00 0.00 0.00 0.00 0.00 0.00 0.00 0.00 0.00 0.00 0.01 0.00 0.01 0.02 0.02 0.03 0.03 0.01 0.01 0.01 0.00 0.00 0.00 0.00 0.00 0.01 0.02 0.08 0.18 0.19 0.18 0.21 0.15 0.07 0.05 0.04 0.02 0.02 0.02 0.01
0.00 0.00 0.00 0.00 0.00 0.00 0.00 0.00 0.00 0.00 0.00 0.00 0.00 0.01 0.01 0.01 0.04 0.02 0.03 0.01 0.02 0.01 0.01 0.00 0.01 0.01 0.00 0.00 0.01 0.02 0.03 0.08 0.14 0.15 0.13 0.10 0.10 0.05 0.05 0.03 0.03 0.02 0.01
0.00 0.00 0.00 0.00 0.00 0.00 0.00 0.00 0.00 0.00 0.00 0.00 0.00 0.00 0.01 0.02 0.03 0.03 0.02 0.02 0.01 0.00 0.01 0.01 0.01 0.01 0.00 0.00 0.01 0.03 0.05 0.05 0.08 0.13 0.12 0.07 0.09 0.06 0.02 0.02 0.01 0.01 0.01
0.00 0.00 0.00 0.00 0.00 0.00 0.00 0.00 0.00 0.00 0.00 0.00 0.00 0.00 0.01 0.02 0.05 0.04 0.02 0.02 0.03 0.01 0.00 0.01 0.01 0.01 0.01 0.03 0.01 0.00 0.01 0.05 0.07 0.09 0.13 0.10 0.11 0.09 0.03 0.01 0.01 0.02 0.05
0.00 0.00 0.00 0.00 0.00 0.00 0.00 0.00 0.00 0.00 0.00 0.00 0.00 0.00 0.01 0.04 0.06 0.05 0.03 0.01 0.02 0.01 0.00 0.00 0.00 0.00 0.00 0.02 0.03 0.03 0.02 0.04 0.19 0.16 0.11 0.11 0.13 0.13 0.10 0.10 0.11 0.09 0.11
0.00 0.00 0.00 0.00 0.00 0.00 0.00 0.00 0.00 0.00 0.00 0.00 0.00 0.00 0.02 0.05 0.05 0.05 0.03 0.02 0.02 0.01 0.00 0.00 0.00 0.00 0.00 0.01 0.01 0.02 0.05 0.13 0.25 0.24 0.25 0.20 0.23 0.21 0.19 0.21 0.21 0.23 0.19
0.00 0.00 0.00 0.00 0.00 0.00 0.00 0.00 0.00 0.00 0.00 0.00 0.00 0.00 0.01 0.04 0.07 0.07 0.03 0.02 0.01 0.00 0.00 0.00 0.00 0.00 0.00 0.01 0.01 0.00 0.02 0.08 0.18 0.28 0.31 0.34 0.35 0.34 0.28 0.30 0.33 0.25 0.17
0.00 0.00 0.00 0.00 0.00 0.00 0.00 0.00 0.00 0.00 0.00 0.00 0.00 0.01 0.02 0.06 0.12 0.16 0.03 0.01 0.01 0.01 0.00 0.00 0.00 0.00 0.00 0.01 0.01 0.01 0.00 0.01 0.07 0.17 0.25 0.29 0.30 0.34 0.28 0.26 0.26 0.18 0.13
0.00 0.00 0.00 0.00 0.00 0.00 0.00 0.00 0.00 0.00 0.00 0.00 0.00 0.02 0.07 0.13 0.19 0.16 0.04 0.01 0.01 0.01 0.01 0.01 0.00 0.00 0.00 0.01 0.02 0.01 0.00 0.00 0.00 0.02 0.07 0.16 0.20 0.21 0.19 0.16 0.12 0.11 0.09
0.00 0.00 0.00 0.00 0.00 0.00 0.00 0.00 0.00 0.00 0.00 0.00 0.01 0.03 0.09 0.21 0.21 0.13 0.03 0.01 0.01 0.02 0.02 0.01 0.01 0.00 0.00 0.01 0.01 0.02 0.00 0.00 0.00 0.00 0.00 0.02 0.07 0.07 0.06 0.05 0.02 0.03 0.02
0.00 0.00 0.00 0.00 0.00 0.00 0.00 0.00 0.00 0.00 0.00 0.00 0.00 0.04 0.10 0.16 0.17 0.12 0.03 0.02 0.02 0.02 0.02 0.01 0.01 0.00 0.00 0.01 0.01 0.01 0.02 0.01 0.00 0.00 0.00 0.00 0.01 0.03 0.02 0.01 0.01 0.01 0.00
0.00 0.00 0.00 0.00 0.00 0.00 0.00 0.00 0.00 0.00 0.00 0.00 0.01 0.05 0.11 0.20 0.22 0.21 0.07 0.03 0.05 0.03 0.02 0.01 0.01 0.01 0.00 0.01 0.03 0.03 0.03 0.02 0.01 0.00 0.01 0.00 0.00 0.01 0.01 0.01 0.00 0.00 0.00
0.00 0.00 0.00 0.00 0.00 0.00 0.00 0.00 0.00 0.00 0.00 0.00 0.03 0.15 0.22 0.29 0.37 0.33 0.15 0.04 0.05 0.06 0.03 0.01 0.01 0.00 0.00 0.01 0.01 0.02 0.03 0.04 0.02 0.01 0.01 0.00 0.00 0.00 0.01 0.01 0.01 0.00 0.00
0.00 0.00 0.00 0.00 0.00 0.00 0.00 0.00 0.00 0.01 0.01 0.01 0.03 0.12 0.32 0.38 0.44 0.36 0.21 0.08 0.12 0.09 0.03 0.01 0.01 0.00 0.01 0.02 0.03 0.02 0.01 0.02 0.02 0.01 0.00 0.00 0.00 0.00 0.01 0.01 0.01 0.01 0.01
0.00 0.00 0.00 0.00 0.01 0.00 0.00 0.00 0.01 0.02 0.02 0.04 0.11 0.16 0.28 0.44 0.48 0.43 0.31 0.22 0.18 0.16 0.14 0.10 0.05 0.05 0.04 0.04 0.04 0.07 0.09 0.08 0.05 0.02 0.03 0.05 0.04 0.04 0.03 0.02 0.01 0.00 0.00
MSLP
998.08 998.56 998.87 999.46 1000.25 1001.02 1001.44 1001.90 1002.20 1002.48 1002.86 1003.26 1003.55 1003.98 1004.75 1005.33 1005.79 1006.13 1006.73 1007.03 1007.41 1008.14 1008.90 1009.68 1010.37 1011.11 1011.91 1012.60 1013.43 1014.38 1014.93 1015.99 1016.22 1016.49 1016.41 1016.76 1016.67 1017.20 1017.56 1017.72 1018.29 1018.78 1019.41
997.83 998.16 998.70 999.63 1000.30 1001.17 1001.71 1002.13 1002.25 1002.26 1002.31 1002.67 1002.88 1003.23 1003.74 1004.34 1005.07 1005.71 1006.45 1006.68 1006.99 1007.42 1008.33 1009.21 1010.06 1010.70 1011.53 1012.17 1012.92 1013.63 1014.41 1015.16 1015.27 1015.85 1016.15 1016.97 1017.29 1017.06 1017.51 1017.70 1018.04 1018.55 1018.84
997.63 998.05 998.99 999.95 1000.73 1001.62 1002.16 1002.48 1002.33 1002.02 1001.69 1001.76 1002.18 1002.72 1003.59 1004.47 1005.26 1005.60 1006.16 1006.32 1006.79 1007.11 1007.81 1008.69 1009.65 1010.32 1010.99 1011.55 1012.21 1012.89 1013.60 1014.12 1014.77 1015.24 1015.10 1016.08 1016.57 1017.03 1017.61 1017.73 1017.97 1018.33 1018.65
997.58 998.40 999.35 1000.13 1000.86 1001.73 1002.32 1002.67 1002.50 1001.80 1001.22 1001.35 1001.91 1002.52 1003.40 1004.28 1004.81 1005.37 1005.88 1006.15 1006.45 1007.02 1007.59 1008.28 1009.11 1009.86 1010.40 1011.08 1011.59 1012.16 1012.74 1013.50 1014.12 1014.67 1014.51 1014.88 1015.17 1016.16 1017.52 1017.83 1017.95 1018.22 1018.36
998.25 999.08 999.88 1000.48 1001.14 1001.79 1002.35 1002.50 1002.47 1002.19 1001.54 1001.59 1002.02 1002.47 1003.23 1003.86 1004.50 1004.98 1005.54 1005.87 1006.33 1006.70 1007.25 1007.84 1008.48 1009.33 1009.87 1010.45 1010.93 1011.50 1012.15 1012.58 1013.07 1013.25 1013.91 1014.35 1014.64 1015.57 1016.33 1017.25 1017.76 1018.08 1018.01
998.92 999.81 1000.41 1001.21 1001.36 1001.81 1002.15 1002.32 1002.12 1002.20 1002.27 1002.48 1002.60 1002.75 1003.01 1003.58 1004.23 1004.44 1004.78 1005.29 1005.86 1006.21 1006.64 1007.21 1007.85 1008.60 1009.35 1009.81 1010.33 1010.85 1011.08 1011.55 1012.40 1012.73 1013.11 1013.36 1013.63 1014.63 1015.52 1016.48 1017.19 1017.64 1017.85
999.55 1000.41 1000.83 1001.31 1001.48 1001.86 1002.21 1002.56 1002.30 1001.74 1002.01 1002.62 1002.81 1003.00 1003.06 1003.15 1003.40 1003.56 1003.91 1004.50 1005.05 1005.58 1005.99 1006.60 1007.27 1007.98 1008.66 1009.27 1009.74 1010.01 1010.26 1010.20 1011.41 1011.87 1012.24 1012.56 1012.67 1013.54 1014.42 1015.36 1016.36 1017.11 1017.72
999.91 1000.60 1000.87 1001.30 1001.44 1001.77 1002.11 1002.51 1002.72 1002.19 1001.90 1002.57 1002.85 1003.00 1003.01 1003.03 1003.04 1003.12 1003.28 1003.67 1004.32 1005.14 1005.72 1006.28 1007.03 1007.46 1008.12 1008.69 1009.05 1009.41 1009.51 1009.90 1010.43 1010.97 1011.39 1011.90 1012.11 1012.57 1013.17 1013.96 1014.99 1016.58 1017.46
1000.12 1000.46 1000.78 1001.08 1001.39 1001.73 1002.18 1002.59 1002.90 1002.87 1002.55 1002.28 1002.69 1002.71 1002.87 1002.86 1002.74 1002.76 1002.68 1002.98 1003.85 1004.58 1005.48 1006.16 1006.80 1007.38 1007.83 1008.22 1008.43 1008.81 1008.99 1009.21 1009.72 1010.27 1010.93 1011.70 1011.34 1011.81 1012.20 1012.84 1013.59 1014.60 1016.27
1000.32 1000.46 1000.64 1000.81 1001.16 1001.67 1002.29 1002.69 1002.96 1003.18 1003.09 1002.75 1002.60 1002.55 1002.56 1002.65 1002.53 1002.41 1002.57 1002.53 1003.38 1004.11 1004.94 1005.79 1006.53 1007.05 1007.58 1007.84 1008.04 1008.37 1008.61 1008.83 1009.22 1009.89 1010.65 1011.23 1011.13 1011.12 1011.43 1012.01 1012.82 1013.92 1014.93
1000.34 1000.15 1000.40 1000.95 1001.19 1001.61 1002.23 1002.85 1003.19 1003.36 1003.24 1003.22 1003.08 1002.61 1002.44 1002.42 1002.40 1002.28 1002.17 1002.07 1002.70 1003.57 1004.30 1005.19 1006.05 1006.64 1007.16 1007.34 1007.65 1008.01 1008.16 1008.32 1008.93 1009.47 1010.28 1010.70 1011.11 1011.44 1011.17 1011.61 1012.51 1013.63 1014.73
1000.40 1000.50 1000.53 1000.64 1000.94 1001.42 1002.05 1002.63 1003.20 1003.51 1003.73 1003.42 1003.32 1002.87 1002.38 1002.22 1002.06 1002.02 1001.95 1002.06 1002.26 1003.00 1003.74 1004.57 1005.47 1006.16 1006.59 1006.90 1007.34 1007.67 1007.80 1007.97 1008.49 1009.00 1009.55 1010.13 1010.96 1011.49 1011.26 1011.75 1012.59 1013.44 1014.53
1000.60 1000.44 1000.51 1000.62 1000.67 1001.16 1002.20 1003.02 1003.55 1003.88 1003.77 1003.74 1003.83 1003.05 1002.27 1002.04 1001.82 1001.68 1001.59 1001.66 1001.94 1002.32 1003.22 1004.09 1004.82 1005.48 1005.93 1006.43 1006.91 1007.32 1007.48 1007.75 1007.95 1008.49 1009.12 1009.90 1010.89 1011.53 1011.60 1012.03 1012.85 1014.17 1014.94
1000.71 1000.62 1000.77 1000.81 1001.37 1002.18 1002.83 1003.24 1003.41 1003.81 1004.27 1004.26 1003.90 1003.23 1002.38 1001.81 1001.54 1001.40 1001.24 1001.38 1001.68 1001.91 1002.62 1003.42 1004.03 1004.74 1005.27 1005.77 1006.32 1006.82 1007.15 1007.54 1007.86 1008.18 1008.67 1009.39 1010.30 1011.04 1011.49 1012.37 1013.28 1014.11 1015.39
1000.94 1001.11 1001.15 1001.43 1002.12 1003.03 1003.50 1003.63 1003.82 1004.24 1004.61 1004.73 1003.98 1003.26 1002.62 1001.63 1001.24 1001.07 1000.94 1001.15 1001.63 1001.74 1002.28 1002.83 1003.27 1003.84 1004.53 1005.18 1005.75 1006.35 1006.71 1007.13 1007.56 1008.01 1008.28 1008.86 1009.81 1010.62 1011.13 1012.03 1013.50 1014.02 1015.36
1001.73 1001.59 1002.02 1002.74 1003.18 1003.65 1003.85 1004.47 1004.93 1005.17 1005.04 1004.60 1004.06 1003.39 1002.70 1001.68 1000.99 1000.88 1000.67 1001.02 1001.59 1001.83 1002.42 1002.91 1003.72 1004.28 1004.73 1005.16 1005.30 1005.74 1006.19 1006.66 1007.46 1007.98 1008.44 1009.13 1010.23 1011.20 1011.35 1012.34 1012.94 1013.84 1015.30
1002.73 1002.83 1003.52 1003.91 1004.22 1004.62 1005.34 1005.86 1005.96 1005.83 1005.38 1004.85 1004.21 1003.51 1003.15 1002.01 1000.75 1000.67 1000.58 1000.97 1001.60 1002.15 1002.99 1003.79 1004.52 1005.14 1005.48 1005.36 1005.42 1005.85 1006.66 1007.35 1007.73 1008.20 1008.63 1010.06 1011.40 1011.15 1012.43 1013.20 1013.86 1014.88 1015.57
1005.03 1005.11 1005.12 1004.86 1005.17 1005.86 1006.62 1007.00 1006.80 1006.27 1005.76 1005.21 1004.50 1004.08 1003.62 1002.60 1001.01 1000.33 1000.37 1001.01 1001.79 1002.72 1003.61 1004.52 1005.24 1005.82 1006.39 1006.43 1006.37 1006.71 1007.64 1008.70 1009.38 1009.28 1009.62 1009.98 1011.65 1012.13 1012.17 1013.62 1014.98 1016.41 1017.57
1007.41 1007.19 1006.65 1006.49 1006.88 1007.36 1007.82 1007.88 1007.28 1006.83 1006.35 1005.82 1005.27 1004.58 1004.11 1003.15 1001.88 1000.68 1000.02 1001.12 1002.20 1003.46 1004.34 1005.30 1005.98 1006.35 1007.22 1007.41 1007.23 1007.17 1008.51 1009.63 1010.45 1010.79 1011.13 1011.14 1011.86 1012.69 1013.09 1013.97 1015.68 1017.75 1019.22
1008.55 1008.18 1007.80 1007.73 1007.96 1008.49 1008.79 1008.67 1008.01 1007.50 1007.14 1006.74 1005.83 1004.96 1004.08 1003.28 1002.19 1000.88 999.99 1001.29 1002.50 1004.00 1005.04 1006.02 1006.67 1007.09 1007.66 1008.14 1008.32 1008.00 1008.91 1010.15 1011.32 1012.26 1012.88 1012.99 1013.02 1014.01 1014.31 1014.65 1016.10 1018.40 1020.56
1009.18 1008.68 1008.27 1008.04 1008.31 1008.89 1009.38 1009.21 1008.75 1008.34 1008.06 1007.07 1006.03 1004.81 1003.88 1003.19 1001.93 1001.09 1000.38 1001.56 1003.03 1004.46 1005.66 1006.54 1007.37 1007.87 1008.30 1008.88 1008.97 1009.37 1009.47 1010.30 1011.74 1012.87 1014.20 1014.92 1015.15 1015.50 1015.83 1016.39 1017.62 1018.61 1020.66
1009.89 1009.60 1009.24 1009.05 1009.00 1009.48 1009.85 1009.79 1009.48 1009.30 1008.47 1007.29 1006.01 1004.70 1004.05 1003.00 1000.83 1001.18 1000.87 1001.93 1003.12 1004.58 1005.99 1006.98 1007.96 1008.87 1009.29 1009.71 1010.01 1010.18 1010.71 1011.41 1011.92 1013.74 1015.04 1015.99 1016.49 1016.95 1017.50 1018.28 1019.49 1020.59 1021.67
1011.40 1011.09 1010.65 1010.31 1010.21 1010.32 1010.52 1010.38 1010.10 1009.69 1008.35 1007.14 1006.13 1005.06 1004.37 1003.30 1002.31 1001.98 1001.26 1002.35 1003.43 1004.41 1005.93 1007.07 1008.25 1009.40 1010.15 1010.74 1011.22 1011.54 1012.15 1012.71 1013.48 1014.72 1015.89 1016.67 1017.27 1018.05 1019.20 1020.40 1021.15 1021.60 1022.16
1012.72 1012.50 1012.12 1011.80 1011.52 1011.43 1011.11 1011.09 1010.75 1009.78 1008.54 1007.55 1006.60 1005.85 1005.28 1004.00 1003.22 1003.22 1003.69 1001.77 1003.29 1004.57 1005.48 1006.95 1008.42 1009.65 1010.65 1011.44 1012.10 1012.72 1013.47 1014.12 1015.01 1016.38 1017.27 1017.97 1018.59 1019.41 1020.48 1021.46 1022.15 1022.49 1023.02
1014.07 1013.78 1013.53 1013.16 1012.78 1012.29 1011.83 1011.63 1011.17 1010.12 1008.95 1008.05 1007.29 1006.68 1005.99 1005.28 1004.71 1004.37 1005.19 1004.67 1003.71 1004.36 1005.05 1006.62 1007.88 1008.82 1010.56 1011.78 1012.30 1012.87 1014.11 1015.21 1016.22 1016.97 1018.11 1018.83 1019.76 1020.73 1021.53 1022.20 1022.81 1023.40 1023.94
1015.17 1014.93 1014.63 1014.27 1013.82 1013.14 1012.63 1012.23 1011.53 1010.59 1009.70 1008.61 1007.95 1007.71 1007.24 1006.73 1006.34 1005.53 1005.84 1006.65 1005.97 1005.89 1006.80 1007.72 1008.23 1009.87 1010.78 1012.15 1013.12 1013.67 1014.67 1015.92 1016.76 1017.28 1018.45 1019.85 1020.63 1021.45 1022.34 1023.06 1023.77 1024.48 1025.01
Thickness
5708 5711 5712 5712 5706 5705 5708 5705 5706 5707 5706 5705 5706 5706 5701 5698 5694 5691 5684 5683 5679 5673 5668 5663 5656 5649 5644 5637 5630 5624 5618 5614 5614 5613 5613 5615 5622 5619 5619 5621 5618 5618 5614
5694 5699 5699 5695 5697 5697 5694 5694 5698 5701 5704 5703 5704 5704 5703 5701 5693 5687 5680 5678 5679 5673 5668 5660 5655 5649 5642 5637 5630 5625 5618 5615 5617 5612 5611 5601 5608 5616 5615 5616 5616 5617 5615
5683 5686 5679 5680 5684 5680 5681 5683 5689 5695 5702 5704 5704 5701 5697 5691 5683 5680 5675 5675 5673 5672 5667 5659 5653 5647 5641 5637 5631 5624 5619 5614 5612 5612 5614 5603 5605 5609 5608 5609 5612 5614 5614
5676 5669 5667 5671 5669 5669 5672 5673 5678 5688 5697 5700 5696 5694 5686 5680 5679 5674 5670 5668 5669 5667 5662 5657 5650 5644 5640 5635 5631 5624 5620 5613 5609 5609 5613 5615 5616 5608 5596 5602 5608 5612 5611
5658 5653 5655 5658 5661 5660 5660 5664 5668 5672 5683 5688 5686 5687 5680 5678 5674 5669 5664 5663 5662 5662 5658 5654 5649 5641 5637 5634 5631 5624 5618 5612 5611 5614 5611 5613 5616 5611 5606 5596 5601 5607 5609
5638 5643 5645 5645 5645 5650 5652 5654 5660 5663 5667 5670 5671 5675 5674 5670 5666 5665 5662 5660 5658 5658 5655 5651 5647 5641 5634 5630 5625 5621 5616 5612 5610 5612 5612 5614 5615 5611 5607 5601 5600 5600 5604
5623 5627 5628 5631 5634 5637 5640 5641 5648 5657 5660 5658 5660 5664 5665 5666 5666 5665 5663 5658 5657 5655 5652 5648 5644 5638 5632 5625 5620 5617 5612 5616 5609 5611 5613 5616 5619 5615 5612 5605 5599 5599 5598
5618 5619 5620 5623 5626 5628 5631 5631 5634 5643 5653 5649 5651 5654 5656 5658 5661 5660 5661 5659 5657 5650 5647 5643 5638 5634 5628 5622 5617 5612 5608 5610 5610 5610 5613 5614 5617 5617 5616 5611 5605 5594 5593
5609 5611 5615 5615 5617 5618 5619 5622 5622 5628 5637 5643 5643 5647 5647 5651 5653 5655 5658 5657 5654 5648 5642 5637 5632 5628 5622 5618 5614 5611 5604 5607 5608 5608 5609 5608 5615 5618 5617 5614 5614 5609 5595
5599 5604 5606 5607 5611 5610 5610 5611 5614 5615 5621 5629 5634 5639 5641 5642 5646 5649 5650 5653 5650 5646 5639 5633 5627 5623 5617 5613 5610 5606 5600 5603 5605 5604 5604 5605 5610 5614 5616 5613 5613 5610 5604
5593 5598 5598 5597 5600 5601 5600 5598 5602 5604 5610 5614 5619 5627 5632 5635 5637 5641 5645 5648 5647 5644 5638 5632 5625 5619 5614 5611 5609 5604 5601 5602 5601 5601 5600 5602 5605 5603 5610 5610 5607 5603 5598
5584 5586 5588 5592 5592 5593 5592 5591 5590 5593 5596 5603 5607 5614 5623 5628 5632 5635 5638 5640 5641 5641 5636 5631 5624 5618 5613 5609 5606 5602 5602 5601 5599 5597 5597 5598 5598 5598 5600 5602 5599 5597 5590
5573 5579 5582 5582 5585 5584 5583 5577 5577 5580 5586 5590 5592 5603 5615 5620 5625 5630 5632 5635 5637 5636 5633 5628 5623 5618 5614 5609 5606 5602 5601 5599 5597 5595 5595 5593 5590 5590 5591 5592 5589 5581 5578
5565 5569 5572 5575 5568 5568 5568 5569 5571 5572 5572 5574 5581 5592 5604 5613 5619 5623 5626 5629 5631 5632 5629 5626 5623 5619 5614 5610 5605 5601 5599 5597 5595 5593 5592 5591 5588 5587 5588 5584 5579 5575 5568
5554 5558 5560 5559 5559 5553 5552 5557 5559 5558 5559 5559 5571 5582 5591 5606 5612 5616 5620 5622 5622 5625 5624 5623 5622 5620 5616 5610 5603 5599 5597 5595 5592 5590 5589 5587 5585 5582 5584 5581 5572 5570 5562
5542 5546 5545 5543 5542 5541 5543 5541 5539 5540 5546 5553 5560 5572 5582 5595 5605 5608 5614 5615 5615 5617 5616 5616 5612 5607 5606 5600 5599 5597 5594 5590 5586 5581 5579 5576 5572 5568 5571 5567 5565 5565 5556
5527 5530 5525 5524 5523 5522 5520 5517 5519 5523 5532 5542 5550 5560 5565 5581 5597 5601 5606 5608 5608 5607 5601 5598 5596 5592 5591 5592 5591 5586 5580 5574 5566 5565 5566 5561 5555 5563 5557 5554 5552 5547 5543
5502 5502 5503 5508 5508 5502 5495 5494 5501 5509 5517 5528 5538 5543 5549 5563 5585 5595 5599 5598 5595 5592 5587 5584 5581 5579 5577 5577 5577 5574 5566 5558 5547 5550 5554 5556 5547 5547 5552 5544 5536 5528 5521
5470 5471 5478 5481 5480 5475 5472 5475 5485 5493 5501 5510 5519 5526 5533 5546 5562 5579 5592 5584 5580 5574 5572 5569 5568 5568 5565 5564 5566 5566 5555 5546 5537 5535 5534 5540 5538 5534 5536 5532 5521 5508 5500
5454 5456 5461 5462 5458 5451 5450 5454 5466 5475 5482 5488 5501 5512 5523 5533 5548 5567 5580 5573 5567 5560 5557 5554 5555 5556 5555 5552 5552 5555 5547 5537 5529 5522 5518 5519 5522 5518 5519 5519 5511 5496 5481
5443 5448 5451 5451 5446 5440 5434 5437 5446 5455 5461 5474 5487 5502 5514 5525 5539 5555 5565 5559 5553 5547 5543 5542 5541 5542 5542 5539 5540 5538 5539 5533 5523 5515 5506 5502 5503 5503 5503 5500 5494 5488 5475
5431 5434 5435 5434 5433 5427 5422 5422 5428 5434 5445 5460 5476 5492 5502 5516 5542 5543 5552 5546 5543 5537 5531 5530 5528 5524 5525 5525 5525 5525 5523 5519 5517 5504 5494 5489 5488 5487 5485 5481 5474 5467 5460
5413 5413 5415 5416 5415 5412 5409 5409 5413 5420 5435 5450 5464 5477 5489 5504 5518 5529 5539 5535 5532 5530 5524 5521 5517 5512 5510 5508 5507 5507 5504 5502 5498 5490 5483 5477 5474 5471 5464 5457 5453 5451 5447
5394 5394 5394 5394 5395 5396 5398 5397 5401 5411 5425 5436 5448 5459 5468 5487 5498 5502 5507 5530 5524 5520 5519 5512 5505 5499 5496 5493 5491 5489 5486 5485 5480 5471 5465 5462 5459 5455 5447 5440 5436 5435 5431
5376 5376 5375 5376 5378 5382 5386 5388 5391 5401 5414 5424 5433 5443 5451 5466 5477 5479 5484 5497 5511 5513 5514 5504 5498 5494 5484 5480 5480 5479 5472 5465 5460 5457 5452 5448 5442 5435 5430 5426 5422 5418 5413
5361 5360 5361 5362 5364 5369 5373 5377 5382 5390 5400 5413 5422 5426 5434 5443 5450 5462 5465 5468 5483 5491 5489 5486 5487 5478 5474 5467 5463 5462 5458 5451 5447 5445 5438 5428 5423 5418 5412 5407 5403 5397 5393